EDT,Max TemperatureF,Mean TemperatureF,Min TemperatureF,Max Dew PointF,MeanDew PointF,Min DewpointF,Max Humidity, Mean Humidity, Min Humidity, Max Sea Level PressureIn, Mean Sea Level PressureIn, Min Sea Level PressureIn, Max VisibilityMiles, Mean VisibilityMiles, Min VisibilityMiles, Max Wind SpeedMPH, Mean Wind SpeedMPH, Max Gust SpeedMPH,PrecipitationIn, CloudCover, Events, WindDirDegrees
2012-10-1,69,56,44,55,49,43,100,78,43,29.99,29.96,29.92,10,7,1,8,1,,0.00,3,,156
2012-10-2,68,64,59,66,62,55,100,92,82,29.98,29.95,29.91,10,4,0,7,2,,0.00,8,,59
2012-10-3,78,73,68,70,67,66,100,88,65,30.14,30.07,29.97,10,6,0,8,2,,0.00,4,,236
2012-10-4,78,68,57,70,64,55,100,85,54,30.16,30.13,30.10,10,6,2,9,1,17,0.00,3,,290
2012-10-5,78,64,51,61,55,50,100,77,39,30.16,30.09,29.98,10,6,1,9,1,16,0.00,0,,276
2012-10-6,78,61,44,61,51,43,100,79,47,30.08,29.94,29.86,10,8,2,18,3,24,0.00,2,,268
2012-10-7,51,46,41,46,44,39,100,91,76,30.19,30.12,30.06,10,7,0,6,0,,0.00,6,,258
2012-10-8,53,44,35,43,40,34,100,83,58,30.32,30.26,30.19,10,7,0,6,1,,0.00,5,,7
2012-10-9,59,52,44,52,47,41,94,82,67,30.23,30.17,30.09,10,8,4,7,3,,0.00,7,,15
2012-10-10,68,59,50,55,49,41,100,75,43,30.11,30.00,29.90,10,6,1,14,3,21,0.00,5,,266
2012-10-11,60,48,37,43,35,30,100,65,34,30.32,30.23,30.11,10,10,10,9,4,18,0.00,0,,284
2012-10-12,64,48,32,45,36,32,100,76,37,30.46,30.25,30.16,10,10,7,16,3,24,0.00,0,,312
2012-10-13,59,44,30,37,32,28,100,75,36,30.55,30.46,30.32,10,10,10,9,1,,0.00,0,,144
2012-10-14,73,54,35,54,44,34,100,72,38,30.32,30.15,29.96,10,10,7,15,3,23,0.00,1,,196
2012-10-15,69,60,50,61,56,48,100,80,68,29.96,29.80,29.70,10,9,0,12,7,21,0.00,3,,226
2012-10-16,62,52,41,48,42,37,100,78,42,29.95,29.89,29.82,10,8,2,12,4,20,0.00,1,,295
2012-10-17,64,50,35,48,42,34,100,80,42,30.05,29.99,29.95,10,7,2,8,1,,0.00,0,,148
2012-10-18,68,54,39,57,48,37,100,76,52,29.99,29.93,29.83,10,8,0,15,3,21,0.00,3,,135
2012-10-19,73,63,51,63,60,52,100,86,57,29.84,29.73,29.61,10,7,1,10,3,17,0.00,6,,173
2012-10-20,68,55,42,52,43,39,100,75,40,29.94,29.80,29.70,10,7,0,10,2,17,0.00,3,,284
2012-10-21,64,52,41,43,40,36,100,72,34,30.15,30.07,29.95,10,10,10,13,4,18,0.00,0,,296
2012-10-22,69,51,33,46,40,34,100,70,28,30.23,30.17,30.13,10,9,4,12,2,,0.00,0,,281
2012-10-23,77,60,42,54,48,41,100,75,39,30.16,30.11,30.06,10,9,2,8,1,,0.00,0,,113
2012-10-24,80,65,50,57,52,46,100,73,30,30.16,30.11,30.07,10,9,5,8,0,,0.00,3,,291
2012-10-25,66,60,55,59,57,54,94,85,73,30.25,30.21,30.16,10,6,4,8,4,,0.00,6,,82
2012-10-26,68,60,51,57,56,52,100,84,64,30.22,30.16,30.08,10,7,2,8,2,,0.00,6,,67
2012-10-27,68,60,51,54,52,46,100,77,46,30.08,29.96,29.89,10,9,2,13,3,17,0.00,0,,55
2012-10-28,59,55,51,50,47,43,94,73,59,29.88,29.76,29.59,10,10,7,16,8,25,0.00,7,,26
2012-10-29,51,48,44,50,47,43,94,90,87,29.58,29.21,28.57,10,5,1,30,12,45,0.00,4,,327
2012-10-30,44,42,39,43,39,37,93,90,87,29.49,29.18,28.60,10,8,2,22,11,39,0.00,8,,195
2012-10-31,53,45,37,43,38,34,100,82,47,29.67,29.58,29.49,10,9,3,14,2,17,0.00,7,,244